Location: Franzen
(48.6167°N, 15.3833°E)
Time: 19:07:40
(UTC+00:00)

FENGYUN 1C DEB - Visible Passes

Search period start: 21 October 2021 00:00
Search period end: 31 October 2021 00:00
Orbit: 846 x 884 km, 98.9° (Epoch: 21 October)

Date Brightness Start Highest point End Pass type
(mag) Time Alt. Az. Time Alt. Az. Time Alt. Az.
21 Oct ? 16:47:01 10° ESE 16:51:59 32° ENE 16:56:55 10° N visible
21 Oct ? 18:27:19 10° S 18:32:46 48° W 18:38:15 10° NNW visible
22 Oct ? 16:39:41 10° ESE 16:44:27 29° ENE 16:49:13 10° N visible
22 Oct ? 18:19:35 10° S 18:25:08 54° W 18:30:42 10° NNW visible
23 Oct ? 16:32:23 10° ESE 16:36:55 26° ENE 16:41:28 10° N visible
23 Oct ? 18:11:53 10° S 18:17:30 62° WSW 18:23:08 10° NNW visible
24 Oct ? 16:25:06 10° ESE 16:29:25 23° ENE 16:33:42 10° N visible
24 Oct ? 18:04:14 10° S 18:09:53 71° WSW 18:15:33 10° NNW visible
24 Oct ? 19:50:02 10° WSW 19:51:52 11° W 19:53:42 10° WNW visible
25 Oct ? 16:17:53 10° ESE 16:21:55 20° NE 16:25:56 10° N visible
25 Oct ? 17:56:35 10° SSE 18:02:16 81° WSW 18:07:57 10° NNW visible
25 Oct ? 19:41:26 10° WSW 19:44:08 13° W 19:46:50 10° WNW visible
26 Oct ? 17:48:59 10° SSE 17:54:40 89° E 18:00:21 10° NNW visible
26 Oct ? 19:33:07 10° WSW 19:36:24 16° W 19:39:43 10° NW visible
27 Oct ? 17:41:25 10° SSE 17:47:04 79° ENE 17:52:44 10° NNW visible
27 Oct ? 19:24:56 10° SW 19:28:42 18° W 19:32:28 10° NW visible
28 Oct ? 17:33:52 10° SSE 17:39:29 70° ENE 17:45:06 10° N visible
28 Oct ? 19:16:51 10° SW 19:20:59 21° W 19:25:08 10° NW visible
29 Oct ? 17:26:20 10° SSE 17:31:54 62° ENE 17:37:28 10° N visible
29 Oct ? 19:08:50 10° SW 19:13:18 24° W 19:17:46 10° NW visible
30 Oct ? 17:18:51 10° SE 17:24:21 54° ENE 17:29:49 10° N visible
30 Oct ? 19:00:54 10° SSW 19:05:37 27° W 19:10:20 10° NW visible
